| time (UTC) | temp F | wind direction | speed knots | gust knots | rain 1hr in | rain 24hr in | rain mn in | humidity % | barometer mb |
| 20260906133009 | 72 | 270 | 7.0 | 12.2 | 0.00 | 0.00 | 0.00 | 44 | 1025.1 |
| 20260906132007 | 69 | 270 | 3.5 | 7.0 | 0.00 | 0.00 | 0.00 | 47 | 1025.2 |
| 20260906131007 | 70 | 270 | 3.5 | 9.6 | 0.00 | 0.00 | 0.00 | 48 | 1025.3 |
| 20260906125009 | 70 | 135 | 6.1 | 7.8 | 0.00 | 0.00 | 0.00 | 45 | 1025.2 |
| 20260906124008 | 70 | 270 | 6.1 | 9.6 | 0.00 | 0.00 | 0.00 | 45 | 1025.3 |
| 20260906122009 | 68 | 135 | 5.2 | 10.4 | 0.00 | 0.00 | 0.00 | 51 | 1025.4 |
| 20260906121009 | 69 | 270 | 5.2 | 10.4 | 0.00 | 0.00 | 0.00 | 50 | 1025.4 |
| 20260906120010 | 70 | 135 | 7.0 | 9.6 | 0.00 | 0.00 | 0.00 | 49 | 1025.5 |
| 20260906115006 | 70 | 45 | 9.6 | 14.8 | 0.00 | 0.00 | 0.00 | 50 | 1025.6 |
| 20260906114006 | 67 | 135 | 6.1 | 10.4 | 0.00 | 0.00 | 0.00 | 51 | 1025.7 |
| 20260906113008 | 66 | 135 | 7.0 | 10.4 | 0.00 | 0.00 | 0.00 | 55 | 1025.9 |
| 20260906112006 | 67 | 135 | 5.2 | 9.6 | 0.00 | 0.00 | 0.00 | 53 | 1025.9 |
| 20260906110010 | 67 | 270 | 6.1 | 9.6 | 0.00 | 0.00 | 0.00 | 57 | 1025.9 |
| 20260906105006 | 67 | 135 | 3.5 | 9.6 | 0.00 | 0.00 | 0.00 | 51 | 1025.9 |
| 20260906104006 | 70 | 270 | 9.6 | 12.2 | 0.00 | 0.00 | 0.00 | 55 | 1025.7 |
| 20260906103007 | 68 | 135 | 7.0 | 11.3 | 0.00 | 0.00 | 0.00 | 51 | 1025.9 |
| 20260906102007 | 65 | 135 | 5.2 | 7.8 | 0.00 | 0.00 | 0.00 | 58 | 1026.1 |
| 20260906101009 | 67 | 135 | 4.3 | 9.6 | 0.00 | 0.00 | 0.00 | 54 | 1025.8 |
| 20260906100016 | 68 | 0 | 7.8 | 12.2 | 0.00 | 0.00 | 0.00 | 56 | 1025.8 |
| 20260906095007 | 67 | 270 | 4.3 | 9.6 | 0.00 | 0.00 | 0.00 | 58 | 1025.9 |
| 20260906093008 | 66 | 135 | 6.1 | 9.6 | 0.00 | 0.00 | 0.00 | 60 | 1026.0 |
| 20260906091008 | 64 | 135 | 4.3 | 8.7 | 0.00 | 0.00 | 0.00 | 61 | 1026.1 |
| 20260906090019 | 62 | 135 | 6.1 | 8.7 | 0.00 | 0.00 | 0.00 | 65 | 1026.3 |
| 20260906085010 | 62 | 135 | 3.5 | 5.2 | 0.00 | 0.00 | 0.00 | 64 | 1026.2 |
| 20260906084011 | 64 | 135 | 5.2 | 9.6 | 0.00 | 0.00 | 0.00 | 63 | 1025.9 |
| 20260906083015 | 61 | 135 | 3.5 | 7.0 | 0.00 | 0.00 | 0.00 | 67 | 1026.3 |
| 20260906082005 | 61 | 0 | 4.3 | 11.3 | 0.00 | 0.00 | 0.00 | 68 | 1026.1 |
| 20260906081009 | 61 | 135 | 3.5 | 9.6 | 0.00 | 0.00 | 0.00 | 67 | 1026.0 |
| 20260906080010 | 62 | 45 | 6.1 | 10.4 | 0.00 | 0.00 | 0.00 | 66 | 1025.8 |
| 20260906074008 | 62 | 270 | 6.1 | 11.3 | 0.00 | 0.00 | 0.00 | 68 | 1025.6 |
| 20260906073011 | 61 | 135 | 5.2 | 9.6 | 0.00 | 0.00 | 0.00 | 69 | 1025.6 |
| 20260906072007 | 61 | 135 | 5.2 | 10.4 | 0.00 | 0.00 | 0.00 | 72 | 1025.6 |
| 20260906070013 | 60 | 270 | 4.3 | 9.6 | 0.00 | 0.00 | 0.00 | 74 | 1025.2 |
| 20260906063010 | 58 | 270 | 2.6 | 4.3 | 0.00 | 0.00 | 0.00 | 78 | 1025.3 |
| 20260906062012 | 57 | 270 | 1.7 | 3.5 | 0.00 | 0.00 | 0.00 | 78 | 1025.3 |
| 20260906060014 | 56 | 135 | 4.3 | 6.1 | 0.00 | 0.00 | 0.00 | 80 | 1025.2 |
| 20260906055006 | 56 | 135 | 3.5 | 6.1 | 0.00 | 0.00 | 0.00 | 82 | 1025.1 |
| 20260906054008 | 55 | 270 | 3.5 | 5.2 | 0.00 | 0.00 | 0.00 | 84 | 1025.0 |
| 20260906053010 | 54 | 270 | 3.5 | 4.3 | 0.00 | 0.00 | 0.00 | 87 | 1024.9 |
| 20260906052009 | 53 | 270 | 2.6 | 3.5 | 0.00 | 0.00 | 0.00 | 87 | 1024.8 |
| 20260906051008 | 52 | 135 | 2.6 | 3.5 | 0.00 | 0.00 | 0.00 | 88 | 1024.9 |
| 20260906050008 | 52 | 135 | 2.6 | 4.3 | 0.00 | 0.00 | 0.00 | 89 | 1024.7 |
| 20260906045007 | 51 | 135 | 2.6 | 3.5 | 0.00 | 0.00 | 0.00 | 91 | 1024.7 |
| 20260906044006 | 50 | 135 | 1.7 | 3.5 | 0.00 | 0.01 | 0.00 | 91 | 1024.6 |
| 20260906043008 | 50 | 135 | 0.9 | 3.5 | 0.00 | 0.01 | 0.00 | 91 | 1024.4 |
| 20260906042007 | 50 | 135 | 1.7 | 2.6 | 0.00 | 0.02 | 0.00 | 91 | 1024.4 |
| 20260906040010 | 51 | 270 | 0.0 | 0.0 | 0.00 | 0.05 | 0.00 | 89 | 1024.2 |
| 20260906035006 | 51 | 270 | 0.9 | 2.6 | 0.00 | 0.05 | 0.00 | 88 | 1024.1 |
| 20260906033010 | 54 | 135 | 1.7 | 3.5 | 0.00 | 0.07 | 0.00 | 84 | 1023.7 |
| 20260906032010 | 54 | 135 | 2.6 | 5.2 | 0.00 | 0.07 | 0.00 | 83 | 1023.7 |
| 20260906030015 | 55 | 135 | 3.5 | 5.2 | 0.00 | 0.07 | 0.00 | 82 | 1023.4 |
| 20260906025009 | 55 | 135 | 4.3 | 7.8 | 0.00 | 0.07 | 0.00 | 81 | 1023.4 |
| 20260906023010 | 55 | 135 | 3.5 | 5.2 | 0.00 | 0.08 | 0.00 | 84 | 1023.2 |
| 20260906022009 | 55 | 135 | 3.5 | 4.3 | 0.00 | 0.08 | 0.00 | 82 | 1023.4 |
| 20260906021005 | 56 | 135 | 2.6 | 4.3 | 0.00 | 0.08 | 0.00 | 82 | 1023.3 |
| 20260906015009 | 56 | 135 | 2.6 | 3.5 | 0.00 | 0.08 | 0.00 | 81 | 1023.1 |
| 20260906014008 | 57 | 135 | 3.5 | 5.2 | 0.00 | 0.08 | 0.00 | 79 | 1022.9 |
| 20260906013012 | 57 | 135 | 3.5 | 5.2 | 0.00 | 0.08 | 0.00 | 80 | 1023.0 |
| 20260906012005 | 56 | 135 | 2.6 | 3.5 | 0.00 | 0.08 | 0.00 | 80 | 1022.8 |
| 20260906011008 | 57 | 135 | 0.9 | 3.5 | 0.00 | 0.08 | 0.00 | 80 | 1022.8 |
| 20260906010016 | 57 | 135 | 1.7 | 3.5 | 0.00 | 0.08 | 0.00 | 79 | 1022.8 |
| 20260906005009 | 57 | 135 | 3.5 | 5.2 | 0.00 | 0.08 | 0.00 | 78 | 1022.7 |
| 20260906004008 | 57 | 135 | 3.5 | 5.2 | 0.00 | 0.08 | 0.00 | 77 | 1022.6 |
| 20260906003010 | 57 | 135 | 2.6 | 4.3 | 0.00 | 0.08 | 0.00 | 78 | 1022.5 |
| 20260906001011 | 55 | 270 | 2.6 | 3.5 | 0.00 | 0.08 | 0.00 | 82 | 1022.6 |
| 20260905235012 | 58 | 135 | 2.6 | 3.5 | 0.00 | 0.08 | 0.00 | 76 | 1022.3 |
| 20260905233012 | 60 | 135 | 2.6 | 4.3 | 0.00 | 0.08 | 0.00 | 73 | 1022.2 |
| 20260905231006 | 58 | 135 | 3.5 | 5.2 | 0.00 | 0.08 | 0.00 | 78 | 1022.3 |
| 20260905225008 | 59 | 270 | 0.9 | 2.6 | 0.00 | 0.08 | 0.00 | 75 | 1022.0 |
| 20260905224008 | 59 | 180 | 1.7 | 3.5 | 0.00 | 0.08 | 0.00 | 73 | 1021.9 |
| 20260905223009 | 60 | 0 | 1.7 | 2.6 | 0.00 | 0.08 | 0.00 | 71 | 1021.9 |
| 20260905222010 | 60 | 270 | 1.7 | 3.5 | 0.00 | 0.08 | 0.00 | 71 | 1022.0 |
| 20260905221009 | 61 | 225 | 1.7 | 3.5 | 0.00 | 0.08 | 0.00 | 70 | 1021.9 |
| 20260905215008 | 62 | 135 | 1.7 | 3.5 | 0.00 | 0.08 | 0.08 | 68 | 1021.5 |
| 20260905214008 | 62 | 135 | 2.6 | 4.3 | 0.00 | 0.08 | 0.08 | 67 | 1021.4 |
| 20260905212007 | 62 | 135 | 1.7 | 3.5 | 0.00 | 0.08 | 0.08 | 65 | 1021.3 |
| 20260905211007 | 62 | 270 | 2.6 | 4.3 | 0.00 | 0.08 | 0.08 | 63 | 1021.0 |
| 20260905210011 | 62 | 135 | 3.5 | 7.8 | 0.00 | 0.08 | 0.08 | 62 | 1021.1 |
| 20260905205009 | 62 | 135 | 3.5 | 7.8 | 0.00 | 0.08 | 0.08 | 63 | 1021.0 |
| 20260905204006 | 62 | 135 | 3.5 | 6.1 | 0.00 | 0.08 | 0.08 | 61 | 1020.6 |
| 20260905203007 | 62 | 135 | 3.5 | 6.1 | 0.00 | 0.08 | 0.08 | 61 | 1020.5 |
| 20260905202005 | 62 | 135 | 2.6 | 5.2 | 0.00 | 0.08 | 0.08 | 64 | 1020.5 |
| 20260905201006 | 61 | 135 | 2.6 | 3.5 | 0.00 | 0.08 | 0.08 | 65 | 1020.4 |
| 20260905200015 | 61 | 135 | 2.6 | 3.5 | 0.00 | 0.08 | 0.08 | 64 | 1020.3 |
| 20260905195009 | 61 | 135 | 2.6 | 3.5 | 0.00 | 0.08 | 0.08 | 66 | 1020.2 |
| 20260905194008 | 61 | 270 | 1.7 | 3.5 | 0.00 | 0.08 | 0.08 | 64 | 1020.1 |
| 20260905193010 | 61 | 270 | 0.9 | 1.7 | 0.00 | 0.08 | 0.08 | 65 | 1019.9 |
| 20260905192005 | 62 | 135 | 0.9 | 1.7 | 0.00 | 0.08 | 0.08 | 62 | 1019.8 |
| 20260905191006 | 62 | 0 | 0.9 | 2.6 | 0.00 | 0.08 | 0.08 | 60 | 1019.8 |
| 20260905190014 | 62 | 135 | 1.7 | 3.5 | 0.00 | 0.08 | 0.08 | 61 | 1019.7 |
| 20260905185007 | 62 | 135 | 2.6 | 3.5 | 0.00 | 0.08 | 0.08 | 60 | 1019.6 |
| 20260905184005 | 63 | 135 | 2.6 | 3.5 | 0.00 | 0.08 | 0.08 | 58 | 1019.4 |
| 20260905181008 | 65 | 135 | 5.2 | 8.7 | 0.00 | 0.08 | 0.08 | 52 | 1018.8 |
| 20260905180010 | 65 | 135 | 4.3 | 7.8 | 0.00 | 0.08 | 0.08 | 53 | 1018.6 |
| 20260905174008 | 66 | 135 | 5.2 | 9.6 | 0.00 | 0.08 | 0.08 | 53 | 1018.4 |
| 20260905171007 | 68 | 135 | 3.5 | 7.0 | 0.00 | 0.08 | 0.08 | 49 | 1018.0 |
| 20260905170014 | 68 | 135 | 3.5 | 5.2 | 0.00 | 0.08 | 0.08 | 50 | 1017.7 |
| 20260905164007 | 69 | 135 | 4.3 | 7.8 | 0.00 | 0.08 | 0.08 | 49 | 1017.6 |
| 20260905163009 | 69 | 135 | 6.1 | 11.3 | 0.00 | 0.08 | 0.08 | 50 | 1017.5 |
| 20260905162006 | 70 | 135 | 6.1 | 9.6 | 0.00 | 0.08 | 0.08 | 47 | 1017.3 |
| 20260905161006 | 71 | 135 | 5.2 | 9.6 | 0.00 | 0.08 | 0.08 | 45 | 1017.3 |
| 20260905160013 | 71 | 135 | 4.3 | 11.3 | 0.00 | 0.08 | 0.08 | 46 | 1017.3 |
| 20260905154009 | 70 | 270 | 5.2 | 9.6 | 0.00 | 0.08 | 0.08 | 50 | 1017.2 |
| 20260905153007 | 71 | 135 | 7.0 | 10.4 | 0.00 | 0.08 | 0.08 | 51 | 1017.1 |
| 20260905152009 | 71 | 135 | 6.1 | 11.3 | 0.00 | 0.08 | 0.08 | 50 | 1017.1 |
| 20260905151008 | 70 | 270 | 5.2 | 11.3 | 0.00 | 0.08 | 0.08 | 52 | 1017.0 |
| 20260905150010 | 70 | 135 | 8.7 | 13.9 | 0.00 | 0.08 | 0.08 | 49 | 1017.0 |
| 20260905145010 | 71 | 135 | 8.7 | 13.9 | 0.00 | 0.08 | 0.08 | 48 | 1017.0 |
| 20260905144008 | 71 | 270 | 7.8 | 11.3 | 0.00 | 0.08 | 0.08 | 49 | 1016.9 |
| 20260905143009 | 72 | 135 | 7.8 | 11.3 | 0.00 | 0.08 | 0.08 | 49 | 1016.8 |
| 20260905141007 | 73 | 135 | 9.6 | 13.9 | 0.00 | 0.08 | 0.08 | 49 | 1016.6 |
| 20260905140013 | 71 | 270 | 8.7 | 13.9 | 0.00 | 0.08 | 0.08 | 49 | 1016.7 |
| 20260905135008 | 71 | 135 | 6.1 | 10.4 | 0.00 | 0.08 | 0.08 | 54 | 1017.0 |
| 20260905134007 | 73 | 0 | 9.6 | 15.6 | 0.00 | 0.08 | 0.08 | 49 | 1016.8 |